• In Uzbekistan
  • List of Countries
  • For 7 days
  • Water Temperature
  • Satellite Maps
  • Weather Map
  • Weather Widgets
  • user-avatar
    Login

    Hourly Weather Klagenfurt

    Today, 17 January, Wednesday

    Time Temperature Precipitation Wind Pressure Humidity
    00:00 +1°C° 0.1 mm 1 mps 677 mmHg 92%
    01:00 +1°C° 0 mm 1 mps 677 mmHg 92%
    02:00 +1°C° 0.1 mm 1 mps 676 mmHg 92%
    03:00 +1°C° 0.1 mm 1 mps 675 mmHg 93%
    04:00 +1°C° 0.1 mm 1 mps 675 mmHg 93%
    05:00 +1°C° 0.1 mm 1 mps 675 mmHg 92%
    06:00 0°C° 0.1 mm 1 mps 674 mmHg 92%
    07:00 0°C° 0.1 mm 1 mps 674 mmHg 92%
    08:00 +1°C° 0.1 mm 1 mps 674 mmHg 89%
    09:00 +2°C° 0.1 mm 1 mps 674 mmHg 86%
    10:00 +2°C° 0.1 mm 1 mps 674 mmHg 83%
    11:00 +2°C° 0.2 mm 2 mps 675 mmHg 75%
    12:00 +2°C° 0.2 mm 3 mps 676 mmHg 67%
    13:00 +1°C° 0.2 mm 4 mps 676 mmHg 59%
    14:00 +1°C° 0.1 mm 3 mps 677 mmHg 61%
    15:00 0°C° 0.1 mm 3 mps 677 mmHg 62%
    16:00 -1°C° 0.1 mm 3 mps 678 mmHg 63%
    17:00 -2°C° 0 mm 2 mps 679 mmHg 65%
    18:00 -3°C° 0 mm 2 mps 679 mmHg 68%
    19:00 -3°C° 0 mm 1 mps 680 mmHg 70%
    20:00 -3°C° 0.1 mm 1 mps 681 mmHg 71%
    21:00 -3°C° 0.1 mm 1 mps 681 mmHg 73%
    22:00 -5°C° 0.1 mm 2 mps 682 mmHg 74%
    23:00 -4°C° 0.2 mm 2 mps 682 mmHg 75%

    Tomorrow, 18 January, Thursday

    Time Temperature Precipitation Wind Pressure Humidity
    00:00 -4°C° 0.2 mm 2 mps 683 mmHg 76%
    01:00 -4°C° 0.2 mm 2 mps 683 mmHg 77%
    02:00 -2°C° 0.1 mm 1 mps 684 mmHg 77%
    03:00 -2°C° 0.1 mm 1 mps 684 mmHg 77%
    04:00 -2°C° 0.1 mm 1 mps 685 mmHg 77%
    05:00 -2°C° 0 mm 1 mps 685 mmHg 77%
    06:00 -2°C° 0 mm 1 mps 685 mmHg 77%
    07:00 -3°C° 0 mm 1 mps 685 mmHg 77%
    08:00 -2°C° 0 mm 1 mps 685 mmHg 74%
    09:00 0°C° 0 mm 1 mps 686 mmHg 70%
    10:00 +1°C° 0 mm 1 mps 686 mmHg 67%
    11:00 +1°C° 0 mm 2 mps 685 mmHg 64%
    12:00 +1°C° 0 mm 2 mps 685 mmHg 62%
    13:00 +1°C° 0 mm 3 mps 685 mmHg 59%
    14:00 +1°C° 0 mm 3 mps 684 mmHg 63%
    15:00 +1°C° 0 mm 2 mps 683 mmHg 67%
    16:00 +1°C° 0 mm 2 mps 683 mmHg 70%
    17:00 -1°C° 0 mm 2 mps 682 mmHg 74%
    18:00 -2°C° 0 mm 2 mps 682 mmHg 77%
    19:00 -2°C° 0 mm 2 mps 682 mmHg 80%
    20:00 -2°C° 0 mm 2 mps 682 mmHg 81%
    21:00 -3°C° 0 mm 2 mps 681 mmHg 82%
    22:00 -3°C° 0 mm 2 mps 681 mmHg 83%
    23:00 -2°C° 0 mm 2 mps 681 mmHg 85%

    Day after tomorrow, 19 January, Friday

    Time Temperature Precipitation Wind Pressure Humidity
    00:00 -2°C° 0 mm 2 mps 681 mmHg 87%
    01:00 -1°C° 0 mm 2 mps 680 mmHg 88%
    02:00 -2°C° 0 mm 2 mps 680 mmHg 90%
    03:00 -2°C° 0 mm 2 mps 680 mmHg 91%
    04:00 -2°C° 0 mm 2 mps 680 mmHg 93%
    05:00 -2°C° 0.2 mm 2 mps 680 mmHg 93%
    06:00 0°C° 0.2 mm 1 mps 681 mmHg 93%
    07:00 +1°C° 0.2 mm 1 mps 681 mmHg 93%
    08:00 +1°C° 0.2 mm 1 mps 682 mmHg 90%
    09:00 +2°C° 0.2 mm 1 mps 682 mmHg 88%
    10:00 +2°C° 0.2 mm 1 mps 682 mmHg 86%
    11:00 +2°C° 0.8 mm 1 mps 682 mmHg 87%
    12:00 +2°C° 0.8 mm 1 mps 682 mmHg 88%
    13:00 +2°C° 0.8 mm 1 mps 682 mmHg 90%
    14:00 +2°C° 1 mm 1 mps 682 mmHg 90%
    15:00 +2°C° 1 mm 1 mps 682 mmHg 90%
    16:00 +1°C° 1 mm 1 mps 682 mmHg 90%
    17:00 +1°C° 0.6 mm 1 mps 683 mmHg 91%
    18:00 0°C° 0.6 mm 1 mps 683 mmHg 92%
    19:00 0°C° 0.6 mm 1 mps 683 mmHg 92%
    20:00 0°C° 0.6 mm 1 mps 684 mmHg 92%
    21:00 0°C° 0.6 mm 1 mps 684 mmHg 92%
    22:00 -1°C° 0.6 mm 1 mps 684 mmHg 93%
    23:00 -1°C° 0.2 mm 1 mps 684 mmHg 92%

    20 January, Saturday

    Time Temperature Precipitation Wind Pressure Humidity
    00:00 -1°C° 0.2 mm 1 mps 684 mmHg 92%
    01:00 -2°C° 0.2 mm 1 mps 684 mmHg 92%
    02:00 -2°C° 0 mm 1 mps 684 mmHg 92%
    03:00 -2°C° 0 mm 1 mps 684 mmHg 93%
    04:00 -3°C° 0 mm 1 mps 684 mmHg 93%
    05:00 -3°C° 0 mm 1 mps 684 mmHg 92%
    06:00 -4°C° 0 mm 1 mps 683 mmHg 92%
    07:00 -4°C° 0 mm 1 mps 683 mmHg 92%
    08:00 -3°C° 0.1 mm 1 mps 684 mmHg 89%
    09:00 -2°C° 0.1 mm 1 mps 684 mmHg 86%
    10:00 -1°C° 0.1 mm 1 mps 684 mmHg 83%
    11:00 0°C° 0.1 mm 1 mps 684 mmHg 80%
    12:00 +1°C° 0.1 mm 1 mps 684 mmHg 76%
    13:00 +2°C° 0.1 mm 1 mps 684 mmHg 73%
    14:00 +1°C° 0.1 mm 1 mps 684 mmHg 76%
    15:00 +1°C° 0.1 mm 1 mps 684 mmHg 78%
    16:00 -1°C° 0.1 mm 0 mps 684 mmHg 80%
    17:00 -1°C° 0 mm 1 mps 684 mmHg 81%
    18:00 -2°C° 0 mm 1 mps 684 mmHg 82%
    19:00 -3°C° 0 mm 1 mps 684 mmHg 84%
    20:00 -4°C° 0 mm 1 mps 684 mmHg 83%
    21:00 -4°C° 0 mm 1 mps 684 mmHg 82%
    22:00 -4°C° 0 mm 1 mps 684 mmHg 82%
    23:00 -4°C° 0 mm 1 mps 684 mmHg 82%

    21 January, Sunday

    Time Temperature Precipitation Wind Pressure Humidity
    00:00 -4°C° 0 mm 1 mps 685 mmHg 81%
    01:00 -4°C° 0 mm 1 mps 685 mmHg 81%
    02:00 -6°C° 0 mm 1 mps 685 mmHg 81%
    03:00 -6°C° 0 mm 1 mps 685 mmHg 81%
    04:00 -6°C° 0 mm 1 mps 685 mmHg 81%
    05:00 -7°C° 0 mm 1 mps 686 mmHg 80%
    06:00 -7°C° 0 mm 1 mps 686 mmHg 80%
    07:00 -8°C° 0 mm 1 mps 687 mmHg 79%
    08:00 -6°C° 0 mm 1 mps 688 mmHg 75%
    09:00 -4°C° 0 mm 1 mps 688 mmHg 71%
    10:00 -3°C° 0 mm 1 mps 689 mmHg 67%
    11:00 -1°C° 0 mm 1 mps 689 mmHg 63%
    12:00 0°C° 0 mm 1 mps 690 mmHg 59%
    13:00 +1°C° 0 mm 1 mps 690 mmHg 55%
    14:00 0°C° 0 mm 1 mps 690 mmHg 59%
    15:00 0°C° 0 mm 1 mps 690 mmHg 63%
    16:00 -1°C° 0 mm 1 mps 690 mmHg 68%
    17:00 -2°C° 0 mm 1 mps 690 mmHg 70%
    18:00 -3°C° 0 mm 1 mps 691 mmHg 72%
    19:00 -6°C° 0 mm 0 mps 691 mmHg 74%
    20:00 -5°C° 0 mm 0 mps 691 mmHg 74%
    21:00 -5°C° 0 mm 0 mps 691 mmHg 75%
    22:00 -5°C° 0 mm 0 mps 691 mmHg 75%
    23:00 -5°C° 0 mm 0 mps 691 mmHg 76%

    22 January, Monday

    Time Temperature Precipitation Wind Pressure Humidity
    00:00 -5°C° 0 mm 0 mps 691 mmHg 77%
    01:00 -5°C° 0 mm 0 mps 690 mmHg 78%
    02:00 -4°C° 0 mm 1 mps 690 mmHg 79%
    03:00 -4°C° 0 mm 1 mps 690 mmHg 79%
    04:00 -4°C° 0 mm 1 mps 689 mmHg 80%
    05:00 -4°C° 0 mm 1 mps 689 mmHg 80%
    06:00 -6°C° 0 mm 1 mps 689 mmHg 79%
    07:00 -6°C° 0 mm 1 mps 688 mmHg 78%
    08:00 -4°C° 0 mm 1 mps 688 mmHg 76%
    09:00 -2°C° 0 mm 1 mps 689 mmHg 73%
    10:00 -1°C° 0 mm 1 mps 689 mmHg 70%
    11:00 0°C° 0.1 mm 1 mps 689 mmHg 71%
    12:00 +1°C° 0.1 mm 1 mps 688 mmHg 71%
    13:00 +1°C° 0.1 mm 1 mps 688 mmHg 71%
    14:00 +1°C° 0.1 mm 1 mps 688 mmHg 75%
    15:00 +1°C° 0.1 mm 1 mps 688 mmHg 79%
    16:00 +1°C° 0.1 mm 1 mps 688 mmHg 83%
    17:00 0°C° 0 mm 1 mps 688 mmHg 84%
    18:00 -1°C° 0 mm 1 mps 688 mmHg 86%
    19:00 -2°C° 0 mm 1 mps 688 mmHg 87%
    20:00 -1°C° 0.1 mm 1 mps 688 mmHg 87%
    21:00 -1°C° 0.1 mm 1 mps 689 mmHg 87%
    22:00 -1°C° 0.1 mm 1 mps 689 mmHg 87%
    23:00 -1°C° 0.1 mm 1 mps 689 mmHg 87%
    Show more